Time,TemperatureF,DewpointF,PressureIn,WindDirection,WindDirectionDegrees,WindSpeedMPH,WindSpeedGustMPH,Humidity,HourlyPrecipIn,Conditions,Clouds,dailyrainin,SoftwareType,DateUTC
2013-02-23 00:01:00,38.0,36.0,29.79,WSW,238,0.0,-999.0,94,-99.99,,,-99.99,,2013-02-23 08:01:00,
2013-02-23 00:11:00,38.0,36.0,29.79,WSW,238,0.0,-999.0,94,-99.99,,,-99.99,,2013-02-23 08:11:00,
2013-02-23 00:21:00,38.0,36.0,29.80,ESE,107,1.0,-999.0,94,-99.99,,,-99.99,,2013-02-23 08:21:00,
2013-02-23 00:31:00,38.0,36.0,29.80,ESE,107,0.0,-999.0,94,-99.99,,,-99.99,,2013-02-23 08:31:00,
2013-02-23 00:41:00,38.0,36.0,29.80,ESE,107,0.0,-999.0,94,-99.99,,,-99.99,,2013-02-23 08:41:00,
2013-02-23 00:52:00,38.0,36.0,29.82,ESE,107,0.0,-999.0,94,-99.99,,,-99.99,,2013-02-23 08:52:00,
2013-02-23 01:01:00,38.0,36.0,29.83,SE,129,1.0,-999.0,94,-99.99,,,-99.99,,2013-02-23 09:01:00,
2013-02-23 01:11:00,38.0,36.0,29.83,SE,129,1.0,-999.0,94,-99.99,,,-99.99,,2013-02-23 09:11:00,
2013-02-23 01:21:00,38.0,36.0,29.83,ESE,115,1.0,-999.0,94,-99.99,,,-99.99,,2013-02-23 09:21:00,
2013-02-23 01:31:00,38.0,36.0,29.84,ESE,115,0.0,-999.0,94,-99.99,,,-99.99,,2013-02-23 09:31:00,
2013-02-23 01:41:00,38.0,36.0,29.84,ESE,115,0.0,-999.0,94,-99.99,,,-99.99,,2013-02-23 09:41:00,
2013-02-23 01:51:00,37.0,35.0,29.84,ESE,115,1.0,-999.0,94,-99.99,,,-99.99,,2013-02-23 09:51:00,
2013-02-23 02:01:00,37.0,35.0,29.86,ESE,115,0.0,-999.0,94,-99.99,,,-99.99,,2013-02-23 10:01:00,
2013-02-23 02:11:00,37.0,35.0,29.86,ESE,115,0.0,-999.0,94,-99.99,,,-99.99,,2013-02-23 10:11:00,
2013-02-23 02:21:00,37.0,35.0,29.87,ENE,58,1.0,-999.0,94,-99.99,,,-99.99,,2013-02-23 10:21:00,
2013-02-23 02:31:00,37.0,35.0,29.88,ENE,58,0.0,-999.0,94,-99.99,,,-99.99,,2013-02-23 10:31:00,
2013-02-23 02:41:00,37.0,35.0,29.88,ENE,58,0.0,-999.0,94,-99.99,,,-99.99,,2013-02-23 10:41:00,
2013-02-23 02:51:00,37.0,35.0,29.88,ENE,66,0.0,-999.0,94,-99.99,,,-99.99,,2013-02-23 10:51:00,
2013-02-23 03:02:00,36.0,34.0,29.87,ENE,66,0.0,-999.0,94,-99.99,,,-99.99,,2013-02-23 11:02:00,
2013-02-23 03:11:00,36.0,34.0,29.87,ENE,66,0.0,-999.0,94,-99.99,,,-99.99,,2013-02-23 11:11:00,
2013-02-23 03:21:00,36.0,34.0,29.86,ENE,66,0.0,-999.0,94,-99.99,,,-99.99,,2013-02-23 11:21:00,
2013-02-23 03:32:00,36.0,34.0,29.86,ENE,78,0.0,-999.0,94,-99.99,,,-99.99,,2013-02-23 11:32:00,
2013-02-23 03:41:00,36.0,34.0,29.86,ENE,78,0.0,-999.0,94,-99.99,,,-99.99,,2013-02-23 11:41:00,
2013-02-23 03:52:00,35.0,33.0,29.89,East,89,0.0,-999.0,94,-99.99,,,-99.99,,2013-02-23 11:52:00,
2013-02-23 04:01:00,35.0,33.0,29.90,East,89,0.0,-999.0,94,-99.99,,,-99.99,,2013-02-23 12:01:00,
2013-02-23 04:11:00,35.0,33.0,29.90,East,89,0.0,-999.0,94,-99.99,,,-99.99,,2013-02-23 12:11:00,
2013-02-23 04:21:00,35.0,33.0,29.90,East,89,0.0,-999.0,94,-99.99,,,-99.99,,2013-02-23 12:21:00,
2013-02-23 04:32:00,34.0,32.0,29.90,East,98,0.0,-999.0,94,-99.99,,,-99.99,,2013-02-23 12:32:00,
2013-02-23 04:41:00,34.0,32.0,29.90,East,98,0.0,-999.0,94,-99.99,,,-99.99,,2013-02-23 12:41:00,
2013-02-23 04:52:00,34.0,32.0,29.91,East,98,0.0,-999.0,94,-99.99,,,-99.99,,2013-02-23 12:52:00,
2013-02-23 05:01:00,34.0,32.0,29.91,East,98,0.0,-999.0,94,-99.99,,,-99.99,,2013-02-23 13:01:00,
2013-02-23 05:11:00,34.0,32.0,29.91,East,98,0.0,-999.0,94,-99.99,,,-99.99,,2013-02-23 13:11:00,
2013-02-23 05:22:00,34.0,32.0,29.91,East,98,0.0,-999.0,94,-99.99,,,-99.99,,2013-02-23 13:22:00,
2013-02-23 05:31:00,33.0,31.0,29.92,East,98,0.0,-999.0,94,-99.99,,,-99.99,,2013-02-23 13:31:00,
2013-02-23 05:42:00,33.0,31.0,29.92,East,98,0.0,-999.0,94,-99.99,,,-99.99,,2013-02-23 13:42:00,
2013-02-23 05:51:00,33.0,31.0,29.93,East,98,0.0,-999.0,94,-99.99,,,-99.99,,2013-02-23 13:51:00,
2013-02-23 06:02:00,33.0,31.0,29.95,East,98,0.0,-999.0,94,-99.99,,,-99.99,,2013-02-23 14:02:00,
2013-02-23 06:10:00,33.0,31.0,29.96,East,98,0.0,-999.0,94,-99.99,,,-99.99,,2013-02-23 14:10:00,
2013-02-23 06:11:00,33.0,31.0,29.95,East,98,0.0,-999.0,94,-99.99,,,-99.99,,2013-02-23 14:11:00,
2013-02-23 06:21:00,33.0,31.0,29.96,East,98,0.0,-999.0,94,-99.99,,,-99.99,,2013-02-23 14:21:00,
2013-02-23 06:32:00,33.0,31.0,29.96,East,98,0.0,-999.0,94,-99.99,,,-99.99,,2013-02-23 14:32:00,
2013-02-23 06:41:00,33.0,31.0,29.96,East,98,0.0,-999.0,94,-99.99,,,-99.99,,2013-02-23 14:41:00,
2013-02-23 06:52:00,33.0,31.0,29.96,East,98,0.0,-999.0,94,-99.99,,,-99.99,,2013-02-23 14:52:00,
2013-02-23 07:01:00,33.0,31.0,29.96,East,98,0.0,-999.0,94,-99.99,,,-99.99,,2013-02-23 15:01:00,
2013-02-23 07:21:00,33.0,31.0,29.98,East,98,0.0,-999.0,94,-99.99,,,-99.99,,2013-02-23 15:21:00,
2013-02-23 07:31:00,33.0,31.0,29.98,East,98,0.0,-999.0,94,-99.99,,,-99.99,,2013-02-23 15:31:00,
2013-02-23 07:41:00,33.0,31.0,29.98,East,98,0.0,-999.0,94,-99.99,,,-99.99,,2013-02-23 15:41:00,
2013-02-23 07:51:00,33.0,31.0,29.98,East,98,0.0,-999.0,94,-99.99,,,-99.99,,2013-02-23 15:51:00,
2013-02-23 08:01:00,33.0,31.0,29.99,East,98,0.0,-999.0,94,-99.99,,,-99.99,,2013-02-23 16:01:00,
2013-02-23 08:11:00,33.0,31.0,29.99,East,98,0.0,-999.0,94,-99.99,,,-99.99,,2013-02-23 16:11:00,
2013-02-23 08:21:00,33.0,31.0,29.99,East,98,0.0,-999.0,94,-99.99,,,-99.99,,2013-02-23 16:21:00,
2013-02-23 08:31:00,34.0,32.0,30.00,East,98,0.0,-999.0,94,-99.99,,,-99.99,,2013-02-23 16:31:00,
2013-02-23 08:42:00,34.0,32.0,30.00,East,98,0.0,-999.0,94,-99.99,,,-99.99,,2013-02-23 16:42:00,
2013-02-23 08:52:00,35.0,33.0,30.01,East,98,0.0,-999.0,94,-99.99,,,-99.99,,2013-02-23 16:52:00,
2013-02-23 09:01:00,35.0,33.0,30.02,East,98,0.0,-999.0,94,-99.99,,,-99.99,,2013-02-23 17:01:00,
2013-02-23 09:11:00,35.0,33.0,30.03,East,98,0.0,-999.0,94,-99.99,,,-99.99,,2013-02-23 17:11:00,
2013-02-23 09:21:00,35.0,33.0,30.03,East,98,0.0,-999.0,94,-99.99,,,-99.99,,2013-02-23 17:21:00,
2013-02-23 09:31:00,36.0,33.0,30.02,East,98,0.0,-999.0,89,-99.99,,,-99.99,,2013-02-23 17:31:00,
2013-02-23 09:41:00,36.0,33.0,30.02,East,98,0.0,-999.0,89,-99.99,,,-99.99,,2013-02-23 17:41:00,
2013-02-23 09:52:00,38.0,34.0,30.03,East,98,0.0,-999.0,84,-99.99,,,-99.99,,2013-02-23 17:52:00,
2013-02-23 10:01:00,38.0,34.0,30.03,East,98,0.0,-999.0,84,-99.99,,,-99.99,,2013-02-23 18:01:00,
2013-02-23 10:11:00,38.0,34.0,30.03,East,98,0.0,-999.0,84,-99.99,,,-99.99,,2013-02-23 18:11:00,
2013-02-23 10:21:00,38.0,34.0,30.03,East,98,0.0,-999.0,84,-99.99,,,-99.99,,2013-02-23 18:21:00,
2013-02-23 10:32:00,41.0,32.0,30.03,SE,144,1.0,-999.0,69,-99.99,,,-99.99,,2013-02-23 18:32:00,
2013-02-23 10:42:00,41.0,32.0,30.03,SE,144,1.0,-999.0,69,-99.99,,,-99.99,,2013-02-23 18:42:00,
2013-02-23 10:52:00,41.0,31.0,30.03,West,278,1.0,-999.0,66,-99.99,,,-99.99,,2013-02-23 18:52:00,
2013-02-23 11:01:00,43.0,32.0,30.03,West,278,1.0,-999.0,64,-99.99,,,-99.99,,2013-02-23 19:01:00,
2013-02-23 11:11:00,43.0,30.0,30.03,SW,219,1.0,-999.0,60,-99.99,,,-99.99,,2013-02-23 19:11:00,
2013-02-23 11:21:00,43.0,30.0,30.03,SW,219,1.0,-999.0,60,-99.99,,,-99.99,,2013-02-23 19:21:00,
2013-02-23 11:32:00,45.0,31.0,30.03,NNE,23,3.0,-999.0,58,-99.99,,,-99.99,,2013-02-23 19:32:00,
2013-02-23 11:41:00,45.0,31.0,30.03,NNE,23,3.0,-999.0,58,-99.99,,,-99.99,,2013-02-23 19:41:00,
2013-02-23 11:51:00,44.0,28.0,30.03,WNW,301,2.0,-999.0,53,-99.99,,,-99.99,,2013-02-23 19:51:00,
2013-02-23 12:01:00,44.0,28.0,30.03,WNW,301,2.0,-999.0,53,-99.99,,,-99.99,,2013-02-23 20:01:00,
2013-02-23 12:11:00,44.0,28.0,30.03,WNW,301,2.0,-999.0,53,-99.99,,,-99.99,,2013-02-23 20:11:00,
2013-02-23 12:21:00,44.0,28.0,30.03,WNW,301,2.0,-999.0,53,-99.99,,,-99.99,,2013-02-23 20:21:00,
2013-02-23 12:52:00,46.0,29.0,30.03,SSW,211,3.0,-999.0,51,-99.99,,,-99.99,,2013-02-23 20:52:00,
2013-02-23 13:01:00,45.0,28.0,30.03,WSW,248,5.0,-999.0,51,-99.99,,,-99.99,,2013-02-23 21:01:00,
2013-02-23 13:11:00,46.0,29.0,30.03,SW,232,5.0,-999.0,51,-99.99,,,-99.99,,2013-02-23 21:11:00,
2013-02-23 13:21:00,46.0,29.0,30.03,SW,232,5.0,-999.0,51,-99.99,,,-99.99,,2013-02-23 21:21:00,
2013-02-23 13:31:00,46.0,29.0,30.03,SW,232,5.0,-999.0,51,-99.99,,,-99.99,,2013-02-23 21:31:00,
2013-02-23 13:41:00,46.0,29.0,30.03,SW,232,5.0,-999.0,51,-99.99,,,-99.99,,2013-02-23 21:41:00,
2013-02-23 13:51:00,45.0,30.0,30.04,South,175,4.0,-999.0,56,-99.99,,,-99.99,,2013-02-23 21:51:00,
2013-02-23 14:01:00,44.0,31.0,30.06,South,188,3.0,-999.0,59,-99.99,,,-99.99,,2013-02-23 22:01:00,
2013-02-23 14:11:00,43.0,32.0,30.06,WNW,286,1.0,-999.0,66,-99.99,,,-99.99,,2013-02-23 22:11:00,
2013-02-23 14:21:00,43.0,32.0,30.06,WNW,286,1.0,-999.0,66,-99.99,,,-99.99,,2013-02-23 22:21:00,
2013-02-23 14:31:00,43.0,32.0,30.07,SSW,213,1.0,-999.0,64,-99.99,,,-99.99,,2013-02-23 22:31:00,
2013-02-23 14:41:00,43.0,32.0,30.07,SSW,213,1.0,-999.0,64,-99.99,,,-99.99,,2013-02-23 22:41:00,
2013-02-23 14:51:00,44.0,31.0,30.07,SSW,211,1.0,-999.0,61,-99.99,,,-99.99,,2013-02-23 22:51:00,
2013-02-23 15:01:00,45.0,32.0,30.08,SW,222,1.0,-999.0,61,-99.99,,,-99.99,,2013-02-23 23:01:00,
2013-02-23 15:11:00,45.0,31.0,30.08,SSW,204,1.0,-999.0,58,-99.99,,,-99.99,,2013-02-23 23:11:00,
2013-02-23 15:21:00,45.0,31.0,30.08,SSW,204,1.0,-999.0,58,-99.99,,,-99.99,,2013-02-23 23:21:00,
2013-02-23 15:31:00,45.0,31.0,30.08,SSW,204,1.0,-999.0,58,-99.99,,,-99.99,,2013-02-23 23:31:00,
2013-02-23 15:41:00,45.0,31.0,30.08,SSW,204,1.0,-999.0,58,-99.99,,,-99.99,,2013-02-23 23:41:00,
2013-02-23 15:52:00,45.0,32.0,30.09,WSW,258,2.0,-999.0,59,-99.99,,,-99.99,,2013-02-23 23:52:00,
2013-02-23 16:01:00,46.0,32.0,30.09,SW,225,2.0,-999.0,59,-99.99,,,-99.99,,2013-02-24 00:01:00,
2013-02-23 16:11:00,46.0,32.0,30.09,SW,225,2.0,-999.0,59,-99.99,,,-99.99,,2013-02-24 00:11:00,
2013-02-23 16:21:00,45.0,31.0,30.09,West,270,2.0,-999.0,58,-99.99,,,-99.99,,2013-02-24 00:21:00,
2013-02-23 16:31:00,45.0,31.0,30.09,West,270,2.0,-999.0,58,-99.99,,,-99.99,,2013-02-24 00:31:00,
2013-02-23 16:42:00,45.0,31.0,30.09,West,270,2.0,-999.0,58,-99.99,,,-99.99,,2013-02-24 00:42:00,
2013-02-23 16:52:00,45.0,33.0,30.11,SW,229,3.0,-999.0,62,-99.99,,,-99.99,,2013-02-24 00:52:00,
2013-02-23 17:01:00,44.0,32.0,30.11,SW,235,3.0,-999.0,63,-99.99,,,-99.99,,2013-02-24 01:01:00,
2013-02-23 17:11:00,44.0,32.0,30.11,SW,235,3.0,-999.0,63,-99.99,,,-99.99,,2013-02-24 01:11:00,
2013-02-23 17:22:00,43.0,32.0,30.11,WNW,300,0.0,-999.0,66,-99.99,,,-99.99,,2013-02-24 01:22:00,
2013-02-23 17:31:00,43.0,32.0,30.11,WNW,300,0.0,-999.0,66,-99.99,,,-99.99,,2013-02-24 01:31:00,
2013-02-23 17:41:00,43.0,32.0,30.11,WNW,300,0.0,-999.0,66,-99.99,,,-99.99,,2013-02-24 01:41:00,
2013-02-23 17:51:00,42.0,32.0,30.14,WSW,238,1.0,-999.0,67,-99.99,,,-99.99,,2013-02-24 01:51:00,
2013-02-23 18:01:00,42.0,33.0,30.15,WSW,238,0.0,-999.0,69,-99.99,,,-99.99,,2013-02-24 02:01:00,
2013-02-23 18:11:00,42.0,33.0,30.15,WSW,238,0.0,-999.0,69,-99.99,,,-99.99,,2013-02-24 02:11:00,
2013-02-23 18:21:00,42.0,33.0,30.16,WSW,238,0.0,-999.0,71,-99.99,,,-99.99,,2013-02-24 02:21:00,
2013-02-23 18:31:00,42.0,33.0,30.16,WSW,238,0.0,-999.0,71,-99.99,,,-99.99,,2013-02-24 02:31:00,
2013-02-23 18:41:00,42.0,33.0,30.16,WSW,238,0.0,-999.0,71,-99.99,,,-99.99,,2013-02-24 02:41:00,
2013-02-23 18:52:00,41.0,34.0,30.17,WSW,238,0.0,-999.0,76,-99.99,,,-99.99,,2013-02-24 02:52:00,
2013-02-23 19:01:00,40.0,34.0,30.18,WSW,238,0.0,-999.0,80,-99.99,,,-99.99,,2013-02-24 03:01:00,
2013-02-23 19:11:00,40.0,34.0,30.18,WSW,238,0.0,-999.0,80,-99.99,,,-99.99,,2013-02-24 03:11:00,
2013-02-23 19:21:00,40.0,34.0,30.18,WSW,238,0.0,-999.0,80,-99.99,,,-99.99,,2013-02-24 03:21:00,
2013-02-23 19:31:00,40.0,35.0,30.19,WSW,238,0.0,-999.0,82,-99.99,,,-99.99,,2013-02-24 03:31:00,
2013-02-23 19:42:00,40.0,35.0,30.19,WSW,238,0.0,-999.0,82,-99.99,,,-99.99,,2013-02-24 03:42:00,
2013-02-23 19:52:00,40.0,35.0,30.19,WSW,238,0.0,-999.0,82,-99.99,,,-99.99,,2013-02-24 03:52:00,
2013-02-23 20:01:00,38.0,34.0,30.21,WSW,238,0.0,-999.0,86,-99.99,,,-99.99,,2013-02-24 04:01:00,
2013-02-23 20:11:00,38.0,34.0,30.21,WSW,238,0.0,-999.0,86,-99.99,,,-99.99,,2013-02-24 04:11:00,
2013-02-23 20:21:00,38.0,34.0,30.22,WSW,238,0.0,-999.0,86,-99.99,,,-99.99,,2013-02-24 04:21:00,
2013-02-23 20:31:00,37.0,33.0,30.22,WSW,238,0.0,-999.0,86,-99.99,,,-99.99,,2013-02-24 04:31:00,
2013-02-23 20:41:00,37.0,33.0,30.22,WSW,238,0.0,-999.0,86,-99.99,,,-99.99,,2013-02-24 04:41:00,
2013-02-23 20:51:00,36.0,33.0,30.23,WSW,238,0.0,-999.0,87,-99.99,,,-99.99,,2013-02-24 04:51:00,
2013-02-23 21:01:00,35.0,32.0,30.23,WSW,238,0.0,-999.0,88,-99.99,,,-99.99,,2013-02-24 05:01:00,
2013-02-23 21:11:00,35.0,32.0,30.23,WSW,238,0.0,-999.0,88,-99.99,,,-99.99,,2013-02-24 05:11:00,
2013-02-23 21:21:00,35.0,32.0,30.24,WSW,238,0.0,-999.0,88,-99.99,,,-99.99,,2013-02-24 05:21:00,
2013-02-23 21:32:00,34.0,31.0,30.25,WSW,238,0.0,-999.0,89,-99.99,,,-99.99,,2013-02-24 05:32:00,
2013-02-23 21:41:00,34.0,31.0,30.25,WSW,238,0.0,-999.0,89,-99.99,,,-99.99,,2013-02-24 05:41:00,
2013-02-23 21:52:00,34.0,31.0,30.26,WSW,238,0.0,-999.0,90,-99.99,,,-99.99,,2013-02-24 05:52:00,
2013-02-23 22:01:00,33.0,30.0,30.27,WSW,238,0.0,-999.0,90,-99.99,,,-99.99,,2013-02-24 06:01:00,
2013-02-23 22:11:00,33.0,30.0,30.27,WSW,238,0.0,-999.0,90,-99.99,,,-99.99,,2013-02-24 06:11:00,
2013-02-23 22:21:00,33.0,31.0,30.27,WSW,238,0.0,-999.0,91,-99.99,,,-99.99,,2013-02-24 06:21:00,
2013-02-23 22:31:00,33.0,31.0,30.27,WSW,238,0.0,-999.0,91,-99.99,,,-99.99,,2013-02-24 06:31:00,
2013-02-23 22:41:00,33.0,31.0,30.27,WSW,238,0.0,-999.0,91,-99.99,,,-99.99,,2013-02-24 06:41:00,
2013-02-23 22:52:00,33.0,31.0,30.28,WSW,238,0.0,-999.0,91,-99.99,,,-99.99,,2013-02-24 06:52:00,
2013-02-23 23:01:00,33.0,31.0,30.29,WSW,238,0.0,-999.0,91,-99.99,,,-99.99,,2013-02-24 07:01:00,
2013-02-23 23:11:00,33.0,31.0,30.29,WSW,238,0.0,-999.0,91,-99.99,,,-99.99,,2013-02-24 07:11:00,
2013-02-23 23:21:00,32.0,30.0,30.29,WSW,238,0.0,-999.0,92,-99.99,,,-99.99,,2013-02-24 07:21:00,
2013-02-23 23:31:00,33.0,31.0,30.29,WSW,238,0.0,-999.0,92,-99.99,,,-99.99,,2013-02-24 07:31:00,
2013-02-23 23:41:00,33.0,31.0,30.29,WSW,238,0.0,-999.0,92,-99.99,,,-99.99,,2013-02-24 07:41:00,
2013-02-23 23:51:00,33.0,31.0,30.29,WSW,238,0.0,-999.0,92,-99.99,,,-99.99,,2013-02-24 07:51:00,